DMC3-FM1

Last updated on Mon Sep 21 2026 00:02:51 GMT+0000 (Coordinated Universal Time)

1 40715U 15032A 26263.63472708 .00000336 00000+0 44508-4 0 9990 2 40715 97.6311 125.0032 0007047 95.4402 264.7618 14.85821409604085
UTC large
Height (km)
Speed (km/s)
/
Latitude / Longitude
Inclination (degrees)
Orbital Period (minutes)
Azimuth
Elevation
Range (km)
Doppler Factor

Next 0 passes for location: London (51.5072 / 0.1276)

No passes found over London.
DMC3-FM1